FENGYUN 1C DEB, 30887

Orbit data source: Space-Track

FENGYUN 1C DEB, 30887 is space debris in SSO originally from a launch on Mon, 10 May 1999 UTC launched from the Taiyaun Space Center, China (TSC). Fengyun 1C debris stems from the Chinese weather satellite Fengyun-1C, which was intentionally destroyed by a Chinese anti-satellite missile in 2007. This event dramatically increased the amount of space debris, with thousands of trackable fragments posing hazards to satellites and human spaceflight. The Fengyun 1C debris cloud has become a focal point in discussions about space sustainability and the need for international regulations to prevent the creation of new debris.

Loading next visibility...
Identifier
30887, 1999-025AXZ
Orbit
SSO
Country
Flag of CNCN / PRC
Related business
Manufacturer
Unknown
Mission
Spacecraft
Bus & Motor
Unknown
Mass
Unknown
Launch date (UTC)
1999-05-10 (27 years ago)
Launch vehicle
Unknown
Launch site
Taiyaun Space Center, China (TSC)
Object type
Payload
Rocket body
Debris
Shape & HBR
Unknown shape, 0.1 m
Radar Cross Section
Small (<0.1 m²)

Expand to show TLE details & history
Last TLE update: 22 hours ago

TLE from 22 hours ago
0 FENGYUN 1C DEB
1 30887U 99025AXZ 25351.38099545  .00002737  00000-0  52401-3 0  9994
2 30887  98.3694  47.1858 0263601 273.6664  83.4422 14.44847466981955
Epoch: 2025-12-17T09:08Z
TLE epoch observation values (Epoch: 2025-12-17T09:08:38.006Z)
Latitude
-0.00002°
Longitude
-176.22423°
Altitude
728.952 km
Speed
7.499 km/s
True Right ascension
03h 08m 44s
True Declination
0° 00' 00"
Sunlit
Object was in full shadow at epoch
Visualization orbit readout
Latitude
Unknown
Longitude
Unknown
Altitude
Unknown
Speed
Unknown
Apparent Right ascension
Unknown
Apparent Declination
Unknown
Sunlit
N/A
Visualization observer readout
Local Sidereal Time
05:26:45
Azimuth
Unknown
Elevation
Unknown
Doppler factor
Unknown
Orbital elements
Apogee altitude
927.259 km
Perigee altitude
552.008 km
Semi-major axis
7,117.771 km
Eccentricity
0.02636
Inclination
98.3694°
RAAN
47.1858°
Arg. of periapsis
273.6664°
True anomaly
86.45303°
Mean anomaly
83.4422°
Eccentric anomaly
84.94665°
Mean motion
3.61432 °/min
Orbital period
99.6 mins
BSTAR
0.00052401
Loading maneuver chart data...
Computing Atmospheric mass density...

Documentation

Showing up to 5 results
|